EN

Hourly Weather Almoradi

Today, 21 January, Thursday

Time Temperature Precipitation Wind Pressure Humidity
00:00 +11°C° 0 mm 4 mps 757 mmHg 66%
01:00 +11°C° 0 mm 4 mps 758 mmHg 67%
02:00 +11°C° 0 mm 4 mps 758 mmHg 68%
03:00 +10°C° 0 mm 4 mps 758 mmHg 69%
04:00 +10°C° 0 mm 4 mps 758 mmHg 71%
05:00 +10°C° 0 mm 4 mps 758 mmHg 74%
06:00 +10°C° 0 mm 4 mps 759 mmHg 77%
07:00 +11°C° 0 mm 4 mps 759 mmHg 74%
08:00 +12°C° 0 mm 5 mps 760 mmHg 71%
09:00 +13°C° 0 mm 5 mps 760 mmHg 68%
10:00 +15°C° 0 mm 5 mps 760 mmHg 60%
11:00 +16°C° 0 mm 6 mps 760 mmHg 53%
12:00 +18°C° 0 mm 7 mps 760 mmHg 46%
13:00 +18°C° 0 mm 7 mps 760 mmHg 45%
14:00 +18°C° 0 mm 7 mps 759 mmHg 45%
15:00 +18°C° 0 mm 7 mps 759 mmHg 44%
16:00 +17°C° 0 mm 6 mps 759 mmHg 50%
17:00 +15°C° 0 mm 5 mps 759 mmHg 55%
18:00 +14°C° 0 mm 4 mps 759 mmHg 61%
19:00 +13°C° 0 mm 4 mps 759 mmHg 63%
20:00 +13°C° 0 mm 4 mps 759 mmHg 64%
21:00 +13°C° 0 mm 4 mps 759 mmHg 66%
22:00 +13°C° 0 mm 4 mps 759 mmHg 66%
23:00 +13°C° 0 mm 4 mps 759 mmHg 65%

Tomorrow, 22 January, Friday

Time Temperature Precipitation Wind Pressure Humidity
00:00 +13°C° 0 mm 4 mps 758 mmHg 65%
01:00 +13°C° 0 mm 4 mps 758 mmHg 67%
02:00 +12°C° 0 mm 4 mps 757 mmHg 68%
03:00 +12°C° 0 mm 4 mps 756 mmHg 70%
04:00 +12°C° 0 mm 4 mps 756 mmHg 69%
05:00 +12°C° 0 mm 4 mps 755 mmHg 69%
06:00 +12°C° 0 mm 4 mps 755 mmHg 69%
07:00 +13°C° 0 mm 5 mps 755 mmHg 66%
08:00 +14°C° 0 mm 6 mps 755 mmHg 64%
09:00 +15°C° 0 mm 7 mps 754 mmHg 61%
10:00 +17°C° 0 mm 9 mps 754 mmHg 55%
11:00 +18°C° 0 mm 12 mps 755 mmHg 49%
12:00 +19°C° 0 mm 15 mps 755 mmHg 43%
13:00 +18°C° 0 mm 15 mps 755 mmHg 42%
14:00 +18°C° 0 mm 15 mps 755 mmHg 42%
15:00 +17°C° 0 mm 15 mps 755 mmHg 41%
16:00 +15°C° 0 mm 14 mps 755 mmHg 45%
17:00 +13°C° 0 mm 13 mps 756 mmHg 48%
18:00 +12°C° 0 mm 12 mps 756 mmHg 52%
19:00 +12°C° 0 mm 11 mps 757 mmHg 53%
20:00 +11°C° 0 mm 10 mps 757 mmHg 54%
21:00 +11°C° 0 mm 8 mps 758 mmHg 55%
22:00 +10°C° 0 mm 7 mps 758 mmHg 58%
23:00 +9°C° 0 mm 5 mps 759 mmHg 60%

Day after tomorrow, 23 January, Saturday

Time Temperature Precipitation Wind Pressure Humidity
00:00 +10°C° 0 mm 4 mps 759 mmHg 62%
01:00 +8°C° 0 mm 4 mps 759 mmHg 62%
02:00 +8°C° 0 mm 4 mps 759 mmHg 61%
03:00 +8°C° 0 mm 4 mps 759 mmHg 61%
04:00 +8°C° 0 mm 4 mps 759 mmHg 63%
05:00 +8°C° 0 mm 3 mps 759 mmHg 64%
06:00 +8°C° 0 mm 3 mps 759 mmHg 66%
07:00 +9°C° 0 mm 3 mps 759 mmHg 63%
08:00 +10°C° 0 mm 4 mps 759 mmHg 61%
09:00 +11°C° 0 mm 4 mps 760 mmHg 58%
10:00 +12°C° 0 mm 5 mps 759 mmHg 53%
11:00 +14°C° 0 mm 6 mps 759 mmHg 48%
12:00 +15°C° 0 mm 7 mps 759 mmHg 43%
13:00 +16°C° 0 mm 7 mps 759 mmHg 44%
14:00 +16°C° 0 mm 7 mps 758 mmHg 45%
15:00 +16°C° 0 mm 7 mps 758 mmHg 45%
16:00 +15°C° 0 mm 6 mps 757 mmHg 50%
17:00 +14°C° 0 mm 6 mps 757 mmHg 55%
18:00 +13°C° 0 mm 6 mps 756 mmHg 59%
19:00 +11°C° 0 mm 6 mps 756 mmHg 60%
20:00 +11°C° 0 mm 6 mps 756 mmHg 60%
21:00 +11°C° 0 mm 6 mps 756 mmHg 61%
22:00 +11°C° 0 mm 6 mps 755 mmHg 63%
23:00 +11°C° 0 mm 6 mps 754 mmHg 65%

24 January, Sunday

Time Temperature Precipitation Wind Pressure Humidity
00:00 +11°C° 0 mm 6 mps 754 mmHg 67%
01:00 +11°C° 0 mm 6 mps 753 mmHg 68%
02:00 +13°C° 0 mm 6 mps 753 mmHg 68%
03:00 +13°C° 0 mm 6 mps 752 mmHg 69%
04:00 +12°C° 0 mm 7 mps 753 mmHg 66%
05:00 +13°C° 0 mm 8 mps 753 mmHg 64%
06:00 +13°C° 0 mm 9 mps 753 mmHg 61%
07:00 +13°C° 0 mm 8 mps 754 mmHg 59%
08:00 +14°C° 0 mm 6 mps 755 mmHg 57%
09:00 +14°C° 0 mm 5 mps 756 mmHg 56%
10:00 +15°C° 0 mm 5 mps 756 mmHg 51%
11:00 +16°C° 0 mm 5 mps 757 mmHg 46%
12:00 +17°C° 0 mm 5 mps 757 mmHg 41%
13:00 +17°C° 0 mm 5 mps 757 mmHg 41%
14:00 +17°C° 0 mm 5 mps 757 mmHg 42%
15:00 +17°C° 0 mm 5 mps 757 mmHg 42%
16:00 +17°C° 0 mm 4 mps 757 mmHg 47%
17:00 +15°C° 0 mm 4 mps 757 mmHg 51%
18:00 +13°C° 0 mm 3 mps 758 mmHg 56%
19:00 +13°C° 0 mm 3 mps 758 mmHg 56%
20:00 +13°C° 0 mm 4 mps 758 mmHg 56%
21:00 +13°C° 0 mm 4 mps 759 mmHg 57%
22:00 +13°C° 0 mm 4 mps 759 mmHg 58%
23:00 +13°C° 0 mm 4 mps 759 mmHg 59%

25 January, Monday

Time Temperature Precipitation Wind Pressure Humidity
00:00 +12°C° 0 mm 4 mps 759 mmHg 60%
01:00 +12°C° 0 mm 4 mps 759 mmHg 61%
02:00 +12°C° 0 mm 4 mps 759 mmHg 62%
03:00 +12°C° 0 mm 4 mps 760 mmHg 63%
04:00 +11°C° 0 mm 4 mps 760 mmHg 65%
05:00 +11°C° 0 mm 3 mps 760 mmHg 68%
06:00 +10°C° 0 mm 3 mps 760 mmHg 70%
07:00 +11°C° 0 mm 3 mps 761 mmHg 67%
08:00 +12°C° 0 mm 3 mps 761 mmHg 64%
09:00 +12°C° 0 mm 3 mps 762 mmHg 61%
10:00 +14°C° 0 mm 3 mps 762 mmHg 57%
11:00 +16°C° 0 mm 2 mps 763 mmHg 52%
12:00 +17°C° 0 mm 2 mps 763 mmHg 47%
13:00 +17°C° 0 mm 2 mps 763 mmHg 45%
14:00 +18°C° 0 mm 2 mps 762 mmHg 43%
15:00 +18°C° 0 mm 2 mps 762 mmHg 42%
16:00 +17°C° 0 mm 3 mps 763 mmHg 50%
17:00 +14°C° 0 mm 3 mps 763 mmHg 59%
18:00 +13°C° 0 mm 3 mps 763 mmHg 67%
19:00 +12°C° 0 mm 3 mps 764 mmHg 72%
20:00 +11°C° 0 mm 3 mps 764 mmHg 77%
21:00 +11°C° 0 mm 3 mps 764 mmHg 81%
22:00 +11°C° 0 mm 3 mps 764 mmHg 83%
23:00 +10°C° 0 mm 3 mps 765 mmHg 85%

26 January, Tuesday

Time Temperature Precipitation Wind Pressure Humidity
00:00 +10°C° 0 mm 2 mps 765 mmHg 87%
01:00 +10°C° 0 mm 2 mps 764 mmHg 85%
02:00 +10°C° 0 mm 2 mps 764 mmHg 84%
03:00 +10°C° 0 mm 2 mps 764 mmHg 83%
04:00 +10°C° 0 mm 2 mps 764 mmHg 82%
05:00 +9°C° 0 mm 2 mps 764 mmHg 82%
06:00 +9°C° 0 mm 2 mps 764 mmHg 81%
07:00 +12°C° 0 mm 2 mps 764 mmHg 75%
08:00 +13°C° 0 mm 2 mps 764 mmHg 69%
09:00 +14°C° 0 mm 3 mps 765 mmHg 63%
10:00 +16°C° 0 mm 3 mps 764 mmHg 58%
11:00 +18°C° 0 mm 4 mps 764 mmHg 53%
12:00 +20°C° 0 mm 4 mps 764 mmHg 48%
13:00 +21°C° 0 mm 4 mps 764 mmHg 48%
14:00 +21°C° 0 mm 4 mps 764 mmHg 47%
15:00 +22°C° 0 mm 4 mps 763 mmHg 46%
16:00 +20°C° 0 mm 4 mps 763 mmHg 53%
17:00 +18°C° 0 mm 4 mps 764 mmHg 61%
18:00 +16°C° 0 mm 3 mps 764 mmHg 68%
19:00 +16°C° 0 mm 3 mps 764 mmHg 70%
20:00 +16°C° 0 mm 3 mps 765 mmHg 72%
21:00 +15°C° 0 mm 2 mps 765 mmHg 74%
22:00 +15°C° 0 mm 2 mps 765 mmHg 74%
23:00 +14°C° 0 mm 3 mps 765 mmHg 75%
Show more